STARLINK-11411, 62018

Orbit data source: Space-Track

STARLINK-11411, 62018 is a payload satellite owned by SpaceX/Seattle (US) in LEO that was launched on Mon, 18 Nov 2024 UTC via an FALCON 9 launch vehicle from the Air Force Western Test Range (AFWTR). Payloads include a variety of satellites, spacecraft, and rockets equipped with specific instruments for various scientific and technological missions. These include communications satellites like Starlink; space stations such as the ISS; scientific satellites like the Hubble; Earth observation satellites from companies like Planet Labs, Umbra, and HawkEye 360; GPS; miniature CubeSats for education and research; and military/defense satellites.

Loading next visibility...
STARLINK-11411 details
Identifier
62018, 2024-213L
Orbit
LEO
Last TLE update14 hours ago
Origin
Flag of USSpaceX/Seattle (US)
ManufacturerSpaceX/Seattle
MissionOperational spacecraft
Bus & MotorSTARLINK V2M, Unknown motor
Mass730 kg wet, ~700 kg dry
Launch date (UTC)
2024-11-18 (2 weeks ago)
Launch vehicle
FALCON 9
Launch site
Air Force Western Test Range (AFWTR)
Object type
Payload
Rocket body
Debris
Shape & HBRUnknown
Radar Cross SectionLarge (>1 m²)

Expand to show TLE details & history

TLE from 14 hours ago
0 STARLINK-11411
1 62018U 24213L   24336.91667824 -.00878156  00000-0 -42716-2 0  9999
2 62018  53.1613 166.7548 0000934  55.9584 337.7719 15.83857559  3395
Epoch: 2024-12-01T22:00Z
Definitive object data (Epoch: 2024-12-01T22:00:00.999Z)
Latitude26.4606°
Longitude147.26543°
Altitude320.143 km
Speed7.72 km/s
True Right ascension12h 34m 04s
True Declination26° 18' 53"
Sunlit
Object was in daylight at TLE epoch
Visualization TLE readout
Latitude5.24787°
Longitude126.59164°
Altitude322.544 km
Speed7.717 km/s
Apparent Right ascension14h 09m 38s
Apparent Declination-46° 14' 30"
Sunlit
Object is in daylight
Visualization observer readout
Local Sidereal Time09:17:58
Azimuth135.988° SSE
Elevation-17.917°
Doppler factor1
Orbital elements
Apogee altitude320.431 km
Perigee altitude319.18 km
Semi-major axis6,697.942 km
Eccentricity0.0000934
Inclination53.1613°
RAAN166.7548°
Arg. of periapsis55.9584°
True anomaly337.76785°
Mean anomaly337.7719°
Eccentric anomaly337.76988°
Mean motion3.95942 °/min
BSTAR-0.0042716
Orbital period90.92 mins
Loading maneuver chart data...
Loading historical data...
Loading historical data...
Loading historical data...
Loading historical data...
Loading historical data...
Loading historical data...
Loading historical data...

STARLINK-11411 Visibility forecast

Observer location: undefined°, undefined

Span
Click to sort rows by Start time (UTC) header in descending order
Start Az.
Max El. time (UTC)
Max El. Az.
Max El.
End time (UTC)
End Az.
4 mins2024-12-02 22:37:13.730Z294.844° NW2024-12-02 22:39:13.730Z182.627° SSW36.049°2024-12-02 22:41:13.730Z145.142° SSE
|